Find STPSAT-6

NORAD ID: 49817 Int'l Des: 2021-118 Owner: STP Country: US operational
HEOCIRCULARGSOGEO

リアルタイム位置

3D地球を読み込み中...

STPSAT-6について

説明を読み込み中...

次回通過

Passes for default location (London). Set your location on the main map for personalized predictions.

高度履歴

Loading altitude history...

軌道要素

1 49817U 21118A 26106.22197550 -.00000038 00000-0 00000-0 0 9990
2 49817 0.1600 84.3976 0002070 248.6220 199.4068 1.00271864 15954
Epoch: Apr 16, 2026 • Age: 18 hours

現在のステータス

高度 35789.3 km
速度 3.07 km/s
衛星直下点 -0.02°S, 111.84°W
打ち上げ日 Dec 7, 2021
運用期間 4.3 years
タイプ other

技術仕様

分類 Payload
質量 1000.00 kg
乾燥質量 1000.00 kg
総質量 1000.00 kg
長さ 2.00 m
直径 1.00 m
スパン 2.00 m
形状 Box+panels
製造者 NGAS
バスタイプ A-500
フェーズステータス In Orbit
所有者/国 STP/US

Most Searched